Waarnemingen

Advertentie
Mijn weer
Eindhoven, Nederland (6370): temperatuur & dauwpunt: 16.02.2017 11:00:00 - 22.02.2017 11:00:00 (CET)Eindhoven, Nederland (6370): temperatuur 5cm: 16.02.2017 11:00:00 - 22.02.2017 11:00:00 (CET)Eindhoven, Nederland (6370): windsnelheid & windstoten: 16.02.2017 11:00:00 - 22.02.2017 11:00:00 (CET)Eindhoven, Nederland (6370): windrichting: 16.02.2017 11:00:00 - 22.02.2017 11:00:00 (CET)Eindhoven, Nederland (6370): luchtdruk: 16.02.2017 11:00:00 - 22.02.2017 11:00:00 (CET)Eindhoven, Nederland (6370): zicht: 16.02.2017 11:00:00 - 22.02.2017 11:00:00 (CET)Eindhoven, Nederland (6370): neerslag: 16.02.2017 11:00:00 - 22.02.2017 11:00:00 (CET)
Datum & Tijd tt [°C] td [°C] tt 5cm [°C] ff [km/u] ff [kn] fx [km/u] fx [kn] dd ppp [hPa] vv [km] rr [mm]
22.02.2017 11:00:00 10,8 9,4 10,2 35 19 50 27 WZW 1007,6 10 0,0
22.02.2017 10:00:00 10,4 9,4 9,8 34 18 50 27 WZW 1007,8 10 0,0
22.02.2017 09:00:00 10,0 9,3 9,2 34 18 50 27 WZW 1007,7 6 0,5
22.02.2017 08:00:00 9,8 9,2 9,0 29 16 50 27 WZW 1007,8 6 -
22.02.2017 07:00:00 9,6 9,1 8,9 24 13 43 23 WZW 1007,6 10 -
22.02.2017 06:00:00 9,9 8,6 9,1 34 18 50 27 WZW 1007,8 10 0,0
22.02.2017 05:00:00 10,3 8,0 9,4 39 21 58 31 ZW 1008,2 10 0,0
22.02.2017 04:00:00 10,5 8,2 9,6 39 21 58 31 ZW 1008,8 10 0,0
22.02.2017 03:00:00 10,4 8,7 9,6 37 20 58 31 WZW 1009,7 10 0,0
22.02.2017 02:00:00 10,5 9,1 9,7 37 20 54 29 ZW 1010,0 10 0,0
22.02.2017 01:00:00 10,4 9,3 9,5 31 17 47 25 ZW 1010,6 10 0,0
22.02.2017 00:00:00 10,2 9,5 9,4 29 16 47 25 ZW 1011,1 10 0,0
21.02.2017 23:00:00 10,0 9,7 9,3 29 16 40 21 ZW 1011,7 9 0,2
21.02.2017 22:00:00 10,2 9,7 9,4 26 14 40 21 ZW 1012,4 3,3 0,0
21.02.2017 21:00:00 10,2 9,5 9,3 21 11 29 16 ZZW 1013,1 9 0,0
21.02.2017 20:00:00 9,8 9,6 9,1 16 9 25 14 ZZW 1013,8 2,6 0,1
21.02.2017 19:00:00 9,6 8,2 8,8 11 6 18 10 ZZW 1014,6 6 0,0
21.02.2017 18:00:00 9,5 7,2 8,5 9 5 25 14 WZW 1015,0 10 0,0
21.02.2017 17:00:00 10,4 6,2 9,7 21 11 29 16 W 1015,3 10 0,0
21.02.2017 16:00:00 11,6 6,1 11,1 18 10 36 19 WZW 1015,5 10 0,0
21.02.2017 15:00:00 12,4 5,9 12,5 16 9 29 16 WNW 1015,7 10 0,0
21.02.2017 14:00:00 11,8 6,0 11,5 22 12 36 19 W 1016,1 10 0,0
21.02.2017 13:00:00 12,1 6,9 12,8 18 10 32 18 W 1016,4 10 0,0
21.02.2017 12:00:00 10,9 6,5 10,5 18 10 36 19 WNW 1016,5 10 0,0
21.02.2017 11:00:00 10,7 9,0 9,8 16 9 29 16 W 1016,3 10 0,0
21.02.2017 10:00:00 10,5 9,3 10,1 16 9 29 16 W 1016,0 10 0,0
21.02.2017 09:00:00 9,9 8,9 9,0 15 8 22 12 W 1015,5 10 0,0
21.02.2017 08:00:00 9,2 8,6 8,2 13 7 25 14 W 1015,2 9 0,0
21.02.2017 07:00:00 8,8 8,5 7,6 13 7 22 12 WZW 1014,7 8 0,0
21.02.2017 06:00:00 8,8 8,5 7,5 15 8 18 10 WZW 1014,7 6 0,0
21.02.2017 05:00:00 9,2 8,8 8,4 11 6 18 10 W 1014,6 6 0,0
21.02.2017 04:00:00 9,7 9,2 8,8 11 6 18 10 WZW 1014,4 7 0,0
21.02.2017 03:00:00 10,3 9,8 9,6 13 7 22 12 W 1015,0 8 0,0
21.02.2017 02:00:00 10,6 10,3 9,9 16 9 25 14 W 1014,8 8 0,3
21.02.2017 01:00:00 10,8 10,6 10,1 15 8 36 19 W 1014,9 3,5 0,8
21.02.2017 00:00:00 11,2 10,8 10,3 16 9 40 21 W 1014,9 2,4 1,4
20.02.2017 23:00:00 11,0 10,6 10,2 22 12 32 18 WZW 1014,8 2,7 0,5
20.02.2017 22:00:00 11,0 10,6 10,3 21 11 32 18 WZW 1014,9 3,9 0,5
20.02.2017 21:00:00 11,1 10,3 10,3 22 12 36 19 ZW 1014,7 8 0,0
20.02.2017 20:00:00 11,0 10,3 10,0 21 11 29 16 ZW 1015,0 7 0,0
20.02.2017 19:00:00 10,5 10,3 9,8 22 12 32 18 ZW 1015,2 5 0,0
20.02.2017 18:00:00 10,3 10,2 9,6 22 12 36 19 ZW 1015,1 3,4 0,0
20.02.2017 17:00:00 10,2 10,0 9,6 21 11 32 18 WZW 1015,2 3,4 0,0
20.02.2017 16:00:00 10,2 9,9 9,6 18 10 36 19 WZW 1015,2 7 0,1
20.02.2017 15:00:00 10,2 9,7 9,6 24 13 36 19 WZW 1015,6 3,4 0,0
20.02.2017 14:00:00 9,8 9,6 9,3 26 14 36 19 ZW 1016,1 2,9 0,1
20.02.2017 13:00:00 9,5 9,1 9,1 28 15 43 23 ZW 1016,8 6 0,0
20.02.2017 12:00:00 9,2 8,9 8,8 26 14 40 21 ZW 1017,5 9 0,0
20.02.2017 11:00:00 8,9 8,5 8,3 26 14 36 19 ZW 1017,7 7 0,0
20.02.2017 10:00:00 8,6 8,2 8,0 22 12 32 18 ZW 1018,0 5 0,3
20.02.2017 09:00:00 8,3 8,1 7,7 21 11 32 18 ZW 1018,3 4,7 0,1
20.02.2017 08:00:00 8,1 7,9 7,4 21 11 32 18 ZW 1018,5 3,4 0,0
20.02.2017 07:00:00 7,7 7,5 7,0 21 11 32 18 ZW 1018,3 3,2 0,0
20.02.2017 06:00:00 7,4 7,3 6,7 16 9 22 12 ZZW 1018,8 2,5 0,1
20.02.2017 05:00:00 7,4 6,9 6,6 15 8 25 14 ZW 1019,5 5 0,0
20.02.2017 04:00:00 7,3 7,1 6,7 16 9 25 14 ZW 1019,8 2,6 0,0
20.02.2017 03:00:00 7,4 6,8 6,7 18 10 25 14 ZW 1020,3 5 0,0
20.02.2017 02:00:00 7,5 6,4 6,6 13 7 18 10 ZW 1021,0 8 0,0
20.02.2017 01:00:00 7,5 6,4 6,6 15 8 18 10 ZW 1021,4 8 0,0
20.02.2017 00:00:00 7,0 6,3 6,0 9 5 11 6 ZZW 1021,6 5 0,0
19.02.2017 23:00:00 6,9 6,2 6,1 9 5 11 6 ZZW 1021,6 5 0,0
19.02.2017 22:00:00 7,0 6,1 6,0 9 5 11 6 ZW 1022,1 6 0,0
19.02.2017 21:00:00 7,1 6,1 6,2 9 5 14 8 WZW 1021,9 6 0,0
19.02.2017 20:00:00 7,4 6,2 6,5 11 6 18 10 WZW 1021,9 7 0,0
19.02.2017 19:00:00 7,7 6,3 6,8 8 4 14 8 WZW 1021,4 7 0,0
19.02.2017 18:00:00 7,7 6,1 6,9 9 5 18 10 WZW 1021,1 7 0,0
19.02.2017 17:00:00 7,8 6,0 7,2 15 8 25 14 WZW 1021,0 7 0,0
19.02.2017 16:00:00 8,0 5,9 7,5 15 8 25 14 ZW 1020,9 7 0,0
19.02.2017 15:00:00 7,7 5,7 7,3 16 9 25 14 WZW 1020,8 7 0,0
19.02.2017 14:00:00 6,5 5,3 6,2 13 7 22 12 ZW 1021,2 6 0,0
19.02.2017 13:00:00 5,4 4,8 4,7 13 7 25 14 ZW 1021,7 4,4 0,1
19.02.2017 12:00:00 5,0 3,7 4,4 16 9 25 14 ZW 1021,8 6 0,0
19.02.2017 11:00:00 4,6 3,6 4,2 18 10 25 14 ZW 1022,2 4,9 0,0
19.02.2017 10:00:00 3,7 3,0 3,2 15 8 29 16 ZW 1022,4 4,9 0,0
19.02.2017 09:00:00 3,1 2,4 2,6 18 10 25 14 ZW 1022,3 5 0,0
19.02.2017 08:00:00 2,3 1,6 1,2 16 9 22 12 ZW 1022,4 5 0,0
19.02.2017 07:00:00 2,2 1,3 0,9 13 7 22 12 ZZW 1022,1 4,7 0,0
19.02.2017 06:00:00 1,2 0,7 -0,2 11 6 18 10 ZZW 1022,9 4,0 0,0
19.02.2017 05:00:00 1,7 1,2 -0,6 11 6 14 8 ZZW 1023,0 3,9 0,0
19.02.2017 04:00:00 1,8 1,0 -0,7 9 5 14 8 ZZW 1023,3 5 0,0
19.02.2017 03:00:00 1,5 0,8 -1,9 11 6 14 8 ZW 1023,8 7 0,0
19.02.2017 02:00:00 1,8 0,4 -1,0 9 5 14 8 Z 1024,3 10 0,0
19.02.2017 01:00:00 0,0 -0,9 -3,9 8 4 11 6 ZZW 1024,9 10 0,0
19.02.2017 00:00:00 1,9 0,1 -2,1 9 5 11 6 ZZW 1024,8 10 0,0
18.02.2017 23:00:00 2,2 0,0 -0,8 9 5 18 10 ZZW 1025,1 10 0,0
18.02.2017 22:00:00 3,8 0,8 1,2 13 7 18 10 Z 1025,1 10 0,0
18.02.2017 21:00:00 3,5 0,8 -2,2 9 5 11 6 Z 1025,3 10 0,0
18.02.2017 20:00:00 4,3 1,5 -2,7 8 4 11 6 ZZO 1025,5 10 0,0
18.02.2017 19:00:00 5,6 1,6 -1,0 8 4 11 6 ZZO 1025,7 10 0,0
18.02.2017 18:00:00 7,5 1,8 2,2 8 4 14 8 Z 1025,7 10 0,0
18.02.2017 17:00:00 10,2 2,7 9,3 5 3 14 8 ZZW 1025,9 10 0,0
18.02.2017 16:00:00 9,9 2,8 9,6 11 6 18 10 ZO 1026,2 22 0,0
18.02.2017 15:00:00 10,1 2,8 10,3 9 5 18 10 Z 1026,4 10 0,0
18.02.2017 14:00:00 10,6 3,5 11,8 9 5 18 10 ZZW 1026,8 10 0,0
18.02.2017 13:00:00 9,3 5,8 10,1 4 2 7 4 - 1027,5 5 0,0
18.02.2017 12:00:00 7,3 6,2 8,1 4 2 11 6 - 1028,1 4,6 0,0
18.02.2017 11:00:00 5,7 5,7 6,1 5 3 7 4 Z 1027,9 2,4 0,0
18.02.2017 10:00:00 4,9 4,9 4,9 4 2 7 4 - 1027,9 1,9 0,0
18.02.2017 09:00:00 4,4 4,3 4,0 5 3 7 4 Z 1027,8 1,2 0,0
18.02.2017 08:00:00 3,9 3,8 3,4 4 2 7 4 - 1027,8 0,2 0,0
18.02.2017 07:00:00 4,0 4,0 3,5 4 2 11 6 WZW 1027,6 0,2 0,0
18.02.2017 06:00:00 4,2 4,1 3,6 2 1 4 2 - 1027,7 0,3 0,0
18.02.2017 05:00:00 4,5 4,5 4,0 4 2 7 4 - 1027,5 0,4 0,0
18.02.2017 04:00:00 4,8 4,7 4,3 4 2 7 4 - 1027,6 0,3 0,0
18.02.2017 03:00:00 5,0 5,0 4,5 4 2 11 6 - 1028,1 0,3 0,0
18.02.2017 02:00:00 4,5 4,4 2,0 2 1 7 4 W 1028,1 0,4 0,0
18.02.2017 01:00:00 4,8 4,7 2,5 4 2 11 6 - 1028,2 2,6 0,0
18.02.2017 00:00:00 5,8 5,7 4,2 8 4 7 4 WZW 1028,2 3,1 0,0
17.02.2017 23:00:00 6,4 6,0 5,2 5 3 11 6 WZW 1028,3 4,0 0,0
17.02.2017 22:00:00 6,8 6,1 5,8 8 4 11 6 W 1028,1 4,9 0,0
17.02.2017 21:00:00 7,2 6,2 6,2 5 3 14 8 WNW 1028,0 7 0,0
17.02.2017 20:00:00 7,5 6,2 6,5 5 3 11 6 W 1027,9 9 0,0
17.02.2017 19:00:00 7,8 5,8 6,7 5 3 18 10 - 1027,5 10 0,0
17.02.2017 18:00:00 8,2 5,6 7,3 8 4 14 8 W 1026,9 10 0,0
17.02.2017 17:00:00 9,0 5,6 8,3 9 5 25 14 WNW 1026,5 10 0,0
17.02.2017 16:00:00 9,4 5,9 9,0 11 6 22 12 WNW 1026,4 10 0,0
17.02.2017 15:00:00 9,0 5,6 7,9 11 6 29 16 WNW 1026,2 10 0,0
17.02.2017 14:00:00 9,3 6,5 8,5 13 7 25 14 NW 1026,2 10 0,0
17.02.2017 13:00:00 8,3 6,8 7,5 11 6 29 16 WNW 1026,2 9 0,0
17.02.2017 12:00:00 7,7 6,6 7,3 13 7 25 14 W 1026,3 8 0,0
17.02.2017 11:00:00 7,5 6,9 6,7 13 7 25 14 W 1025,8 5 0,0
17.02.2017 10:00:00 6,8 6,4 6,2 15 8 25 14 W 1025,7 5 0,0
17.02.2017 09:00:00 6,4 6,1 5,8 16 9 29 16 WZW 1025,5 3,5 0,1
17.02.2017 08:00:00 6,3 5,9 5,6 16 9 25 14 WZW 1025,3 4,6 0,4
17.02.2017 07:00:00 6,0 5,5 5,1 13 7 22 12 WZW 1025,2 4,8 0,0
17.02.2017 06:00:00 5,7 5,3 4,7 13 7 25 14 WZW 1025,4 5 0,0
17.02.2017 05:00:00 5,7 5,4 4,5 13 7 22 12 ZW 1025,6 4,8 0,0
17.02.2017 04:00:00 4,8 4,8 3,4 15 8 18 10 ZW 1026,0 3,6 0,0
17.02.2017 03:00:00 4,6 4,5 3,7 15 8 22 12 ZW 1026,4 3,6 0,0
17.02.2017 02:00:00 3,2 3,1 1,5 13 7 18 10 ZW 1026,6 3,1 0,0
17.02.2017 01:00:00 2,2 2,1 -0,6 11 6 14 8 ZW 1027,1 2,9 0,0
17.02.2017 00:00:00 3,1 3,0 0,3 11 6 14 8 ZW 1027,2 4,4 0,0
16.02.2017 23:00:00 5,1 4,6 2,8 8 4 11 6 WZW 1027,7 5 0,0
16.02.2017 22:00:00 6,3 5,5 5,0 9 5 14 8 WZW 1028,0 5 0,0
16.02.2017 21:00:00 6,6 5,5 5,0 8 4 11 6 W 1028,1 6 0,0
16.02.2017 20:00:00 5,9 4,8 2,9 8 4 11 6 WZW 1028,2 7 0,0
16.02.2017 19:00:00 5,8 4,6 3,3 8 4 14 8 WZW 1027,9 10 0,0
16.02.2017 18:00:00 7,8 5,3 5,7 9 5 14 8 WZW 1028,1 10 0,0
16.02.2017 17:00:00 8,8 5,8 7,7 11 6 22 12 NW 1028,3 10 0,0
16.02.2017 16:00:00 10,2 6,4 10,5 13 7 22 12 WNW 1028,5 10 0,0
16.02.2017 15:00:00 10,9 6,9 9,8 15 8 25 14 W 1028,6 10 0,0
16.02.2017 14:00:00 10,9 6,8 11,1 16 9 25 14 W 1029,3 10 0,0
16.02.2017 13:00:00 10,4 7,2 10,2 16 9 25 14 ZW 1029,8 10 0,0
16.02.2017 12:00:00 8,1 7,0 7,9 13 7 22 12 ZW 1030,5 8 0,0
16.02.2017 11:00:00 7,3 6,9 6,7 11 6 18 10 ZW 1030,7 5 0,0

tt = temperatuur
td = dauwpunt
tt 5cm = temperatuur 5cm
ff = windsnelheid
fx = windstoten
dd = windrichting
ppp = luchtdruk
vv = zicht
rr = neerslag

Weerstations in de omgeving